[[{"header":{"parameterUnit":"m.s-1","parameterCategory":1,"la1":30.2991,"la2":30.254,"lo1":-89.0895,"lo2":-89.0444,"dy":0.0017,"dx":0.0017,"nx":28,"ny":28,"refTime":"2024-08-15T21:00:00:Z","depth":0,"parameterNumber":2,"parameterNumberName":"U-component_of_WINDS"},"data":[0,0,0,0,0,0,0,0,0,0,0,0,0,0,0,0,0,0,0,0,0,0,0,0,0,0,0,0,0,0,0,0,0,0,0,0,0,0,0,0,0,0,0,0,0,0,0,0,0,0,0,0,0,0,0,0,0,0,0.2332,0.2332,0,0.2339,0.2339,0.2339,0.2362,0.2362,0.2363,0.2363,0.237,0.237,0.237,0,0,0,0,0,0,0,0,0,0,0,0,0,0.2336,0.2336,0.2332,0.2332,0.2332,0.2339,0.2339,0.2339,0.2362,0.2362,0.2363,0.2364,0.237,0.237,0.237,0,0,0,0,0,0,0,0,0,0,0,0,0,0.2338,0.2336,0.2332,0.2344,0.2345,0.2339,0.2339,0.2339,0.2362,0.2362,0.2363,0.2364,0.2371,0.237,0.237,0.2352,0,0,0.2368,0.2368,0,0,0,0,0,0,0,0,0.2338,0.2338,0.2342,0.2343,0.2344,0.235,0.2343,0.2343,0.2361,0.2355,0.2363,0.2364,0.2363,0.2363,0.2363,0.2352,0.2352,0.2368,0.2368,0.2368,0.2368,0,0,0,0,0,0,0,0.2338,0.2337,0.2335,0.2342,0.2344,0.2349,0.235,0.2343,0.2355,0.2356,0.2358,0.2358,0.2364,0.2363,0.2363,0.2353,0.2368,0.2368,0.2368,0.2368,0.2326,0.2326,0,0,0,0,0,0,0.2336,0.2337,0.2334,0.2335,0.2343,0.2348,0.2349,0.2348,0.2355,0.2357,0.2358,0.2359,0.2364,0.2364,0.2364,0.2343,0.2368,0.2368,0.2367,0.2327,0.2326,0.2325,0,0,0,0,0,0,0.2336,0.2335,0.2334,0.2336,0.2337,0.2347,0.2345,0.2347,0.2347,0.2356,0.2358,0.2355,0.2364,0.2364,0.2354,0.2343,0.2367,0.2367,0.2328,0.2327,0.2326,0.2301,0,0,0,0,0,0,0.2336,0.2335,0.2329,0.2336,0.2336,0.2325,0.2344,0.2347,0.2346,0.2348,0.2354,0.2356,0.2365,0.2355,0.2354,0.2343,0.2367,0.2329,0.2328,0.2326,0.2303,0.2299,0.2296,0,0,0,0,0,0.2336,0.2322,0.2328,0.2328,0.2329,0.2324,0.2324,0.2335,0.2345,0.2339,0.2344,0.2356,0.2344,0.2354,0.2353,0.2342,0.233,0.2328,0.2326,0.2304,0.23,0.2296,0,0,0,0,0,0,0.2313,0.2323,0.2331,0.2318,0.232,0.2328,0.232,0.233,0.2329,0.2331,0.2344,0.2345,0.2333,0.2337,0.2347,0.2324,0.2339,0.2337,0.2323,0.2318,0.2315,0.2314,0.2366,0,0,0,0,0,0.2306,0.2302,0.2311,0.2299,0.23,0.231,0.2308,0.2316,0.2319,0.232,0.2325,0.2326,0.2323,0.2321,0.2319,0.2303,0.2304,0.2295,0.2291,0.2288,0.2286,0.2278,0.2273,0.2319,0.2319,0.2319,0,0,0.2293,0.2298,0.2294,0.2295,0.2297,0.2292,0.231,0.2304,0.2301,0.2319,0.231,0.2313,0.2316,0.2303,0.2298,0.2305,0.2274,0.2286,0.2283,0.2283,0.2275,0.2271,0.2267,0.2318,0.2318,0.2318,0,0,0.2266,0.2269,0.2259,0.2261,0.2265,0.2271,0.2269,0.2275,0.2278,0.2269,0.2283,0.2278,0.2272,0.2274,0.2274,0.2245,0.2256,0.2244,0.2226,0.2217,0.2213,0.221,0.22,0.2196,0.2242,0.2242,0.2242,0,0.2248,0.2242,0.2253,0.2246,0.2246,0.2261,0.2251,0.2253,0.2255,0.2254,0.2262,0.2255,0.2258,0.2245,0.2238,0.2238,0.2235,0.2244,0.2213,0.221,0.2207,0.2197,0.2193,0.2241,0.2241,0.2241,0.2241,0,0.222,0.2215,0.2207,0.2208,0.2207,0.2198,0.2208,0.2205,0.2212,0.2218,0.2208,0.2212,0.2211,0.2208,0.2216,0.2196,0.2201,0.2211,0.2226,0.2201,0.2192,0.2189,0.2239,0.2239,0.224,0.224,0,0,0.2179,0.2187,0.2184,0.2184,0.2189,0.2185,0.2176,0.2175,0.2172,0.2172,0.2165,0.216,0.2169,0.2169,0.2177,0.2169,0.2146,0.218,0.218,0.2173,0.2123,0.2116,0.2111,0.2152,0.2152,0.2151,0.2123,0,0.2153,0.214,0.2149,0.2134,0.2129,0.2144,0.2136,0.2138,0.2143,0.2139,0.2144,0.2139,0.2152,0.2152,0.2145,0.215,0.2136,0.2152,0.2146,0.2145,0.2144,0.2106,0.2098,0.2072,0.212,0.2119,0.2119,0,0.2121,0.212,0.2105,0.2109,0.2108,0.2101,0.21,0.2096,0.2098,0.2101,0.2101,0.211,0.2102,0.2116,0.2105,0.2115,0.2113,0.2115,0.2114,0.2114,0.213,0.2105,0.2063,0.2059,0.2113,0.2114,0.2114,0,0.2093,0.2087,0.2077,0.2077,0.2083,0.2077,0.2079,0.2082,0.208,0.2079,0.2077,0.2075,0.2074,0.2072,0.208,0.209,0.2067,0.2082,0.2069,0.2069,0.2064,0.2064,0.2021,0.2062,0.2062,0.2062,0.2063,0,0.2062,0.2052,0.2064,0.2058,0.2047,0.2057,0.2046,0.2049,0.2051,0.2045,0.2057,0.2051,0.2063,0.2058,0.2064,0.2053,0.2052,0.2055,0.2056,0.2053,0.2053,0.2052,0.2054,0.2061,0.2062,0.2062,0.2062,0,0.2029,0.2036,0.2026,0.2032,0.2033,0.2024,0.2029,0.2023,0.2028,0.202,0.2019,0.2027,0.2021,0.2029,0.2025,0.2029,0.2014,0.2018,0.2013,0.2014,0.2,0.2001,0.1955,0.195,0.1995,0.1994,0.1994,0,0.2009,0.2001,0.2006,0.2003,0.2004,0.1999,0.1997,0.2007,0.2004,0.2005,0.1999,0.1994,0.1992,0.1982,0.1987,0.1984,0.1988,0.1972,0.1988,0.1985,0.1988,0.1988,0.1987,0.1969,0.1969,0.1968,0.1968,0,0.1973,0.1977,0.1974,0.1971,0.1968,0.1967,0.1967,0.1963,0.1974,0.197,0.1965,0.1962,0.1957,0.1953,0.195,0.1952,0.1961,0.1963,0.1959,0.1956,0.1953,0.1954,0.2004,0.1964,0.1964,0.1965,0.1965,0.1965,0.1945,0.1939,0.1941,0.1937,0.1937,0.1936,0.1931,0.1935,0.193,0.1927,0.1933,0.1926,0.1927,0.1925,0.1925,0.192,0.1926,0.1922,0.1921,0.1919,0.1917,0.1954,0.1919,0.1919,0.1919,0.192,0.192,0,0.191,0.1911,0.1907,0.1906,0.1902,0.1911,0.1911,0.1907,0.1901,0.1901,0.1898,0.1891,0.1886,0.1891,0.1887,0.1881,0.1885,0.188,0.188,0.188,0.1911,0.1914,0.1876,0.1876,0.1876,0.1876,0.1876,0.1876,0.1891,0.188,0.1884,0.1873,0.1875,0.1868,0.1867,0.1866,0.1866,0.1858,0.1854,0.1857,0.1859,0.1855,0.185,0.1852,0.1849,0.1842,0.1845,0.1874,0.1878,0.1882,0.1885,0.1842,0.1842,0.1815,0.1814,0.1814]},{"header":{"parameterUnit":"m.s-1","parameterCategory":1,"la1":30.2991,"la2":30.254,"lo1":-89.0895,"lo2":-89.0444,"dy":0.0017,"dx":0.0017,"nx":28,"ny":28,"refTime":"2024-08-15T21:00:00:Z","depth":0,"parameterNumber":3,"parameterNumberName":"V-component_of_WINDS"},"data":[0,0,0,0,0,0,0,0,0,0,0,0,0,0,0,0,0,0,0,0,0,0,0,0,0,0,0,0,0,0,0,0,0,0,0,0,0,0,0,0,0,0,0,0,0,0,0,0,0,0,0,0,0,0,0,0,0,0,1.0205,1.0205,0,1.0221,1.0222,1.0222,1.0238,1.0239,1.0239,1.0239,1.0255,1.0255,1.0255,0,0,0,0,0,0,0,0,0,0,0,0,0,1.0185,1.0185,1.0205,1.0205,1.0205,1.0221,1.0222,1.0222,1.0238,1.0239,1.0239,1.0239,1.0255,1.0255,1.0255,0,0,0,0,0,0,0,0,0,0,0,0,0,1.0197,1.0185,1.0204,1.0215,1.0216,1.0221,1.0222,1.0222,1.0238,1.0239,1.0239,1.0239,1.0255,1.0255,1.0255,1.0251,0,0,1.0257,1.0257,0,0,0,0,0,0,0,0,1.0196,1.0197,1.0213,1.0214,1.0216,1.0228,1.0221,1.0232,1.0238,1.023,1.0239,1.0239,1.0246,1.0247,1.0249,1.0252,1.0252,1.0257,1.0257,1.0257,1.0257,0,0,0,0,0,0,0,1.0195,1.0197,1.0211,1.0214,1.0215,1.0218,1.0221,1.0223,1.0236,1.0231,1.0232,1.0234,1.0246,1.0249,1.025,1.0253,1.0257,1.0257,1.0257,1.0257,1.0251,1.0251,0,0,0,0,0,0,1.0193,1.0196,1.0211,1.0212,1.0206,1.0219,1.0221,1.0224,1.0236,1.0238,1.0233,1.0234,1.0248,1.0249,1.025,1.0245,1.0257,1.0257,1.0257,1.0252,1.0251,1.0251,0,0,0,0,0,0,1.0192,1.0194,1.021,1.0204,1.0206,1.0219,1.0222,1.0224,1.0226,1.0238,1.024,1.0234,1.0248,1.025,1.0251,1.0246,1.0257,1.0258,1.0252,1.0252,1.0251,1.0235,0,0,0,0,0,0,1.0192,1.0194,1.0193,1.0204,1.0207,1.021,1.0221,1.0224,1.0227,1.0229,1.0239,1.0241,1.0249,1.025,1.0251,1.0247,1.0258,1.0253,1.0252,1.0251,1.0236,1.0234,1.0233,0,0,0,0,0,1.0191,1.0187,1.0192,1.0194,1.0206,1.021,1.0212,1.0221,1.0227,1.0225,1.0233,1.024,1.0246,1.025,1.0251,1.0247,1.0253,1.0252,1.0251,1.0237,1.0235,1.0233,0,0,0,0,0,0,1.0175,1.0189,1.0195,1.0195,1.0201,1.0213,1.0212,1.0219,1.0223,1.0224,1.0236,1.0238,1.0237,1.0242,1.0246,1.0243,1.0251,1.025,1.024,1.0237,1.0236,1.0234,1.0258,0,0,0,0,0,1.0171,1.0174,1.0187,1.0185,1.0188,1.0199,1.0202,1.0209,1.0215,1.0218,1.0225,1.0231,1.0234,1.0236,1.024,1.0237,1.0239,1.0235,1.0233,1.0231,1.0231,1.0229,1.0227,1.0248,1.0248,1.0248,0,0,1.0164,1.0172,1.0174,1.0182,1.0188,1.019,1.0201,1.0204,1.0205,1.0218,1.0219,1.0225,1.0232,1.0231,1.0231,1.0235,1.0225,1.023,1.0229,1.0229,1.0228,1.0226,1.0224,1.0248,1.0248,1.0248,0,0,1.0152,1.0159,1.0159,1.0164,1.0172,1.018,1.0179,1.019,1.0194,1.0195,1.0205,1.0207,1.0212,1.0217,1.022,1.0208,1.0215,1.0209,1.02,1.0198,1.0196,1.0194,1.019,1.0188,1.0209,1.0208,1.0208,0,1.0142,1.0146,1.0157,1.0159,1.0162,1.0174,1.0173,1.0178,1.0187,1.0188,1.0193,1.02,1.0205,1.0205,1.0202,1.0205,1.0204,1.0208,1.0195,1.0194,1.0193,1.0188,1.0187,1.0208,1.0208,1.0208,1.0208,0,1.0133,1.0136,1.0134,1.0143,1.0146,1.0146,1.0156,1.0158,1.0164,1.0171,1.0171,1.0179,1.0184,1.0184,1.0191,1.0185,1.0187,1.0193,1.0201,1.019,1.0186,1.0184,1.0206,1.0207,1.0207,1.0207,0,0,1.0112,1.0126,1.0125,1.0129,1.0138,1.014,1.0141,1.0146,1.0147,1.0152,1.0152,1.0156,1.0162,1.0165,1.0172,1.0171,1.016,1.0177,1.0178,1.0173,1.0153,1.0148,1.0146,1.0165,1.0165,1.0165,1.0152,0,1.0101,1.0103,1.0112,1.0111,1.0113,1.0124,1.0124,1.013,1.0136,1.0138,1.0144,1.0147,1.0155,1.0156,1.0155,1.0162,1.0156,1.0163,1.0165,1.0165,1.0162,1.0144,1.0138,1.0126,1.0151,1.0151,1.015,0,1.0089,1.0093,1.0092,1.0101,1.0102,1.0102,1.0107,1.011,1.0116,1.012,1.0124,1.0131,1.0131,1.0139,1.0139,1.0144,1.0145,1.0148,1.0148,1.0148,1.0156,1.0143,1.0123,1.012,1.0148,1.0148,1.0149,0,1.0072,1.0078,1.0078,1.0081,1.0092,1.0091,1.0096,1.0103,1.0105,1.0109,1.011,1.0114,1.0116,1.0119,1.0127,1.0132,1.0126,1.0135,1.0129,1.0129,1.0127,1.0127,1.0106,1.0128,1.0128,1.0128,1.0128,0,1.0059,1.0058,1.0071,1.0071,1.0069,1.008,1.0078,1.0083,1.0089,1.009,1.01,1.01,1.0111,1.0113,1.0119,1.0117,1.0119,1.0122,1.0123,1.012,1.012,1.0121,1.0122,1.0128,1.0128,1.0128,1.0128,0,1.004,1.0049,1.005,1.006,1.0062,1.0061,1.0069,1.0069,1.0075,1.0076,1.0076,1.0086,1.0088,1.0097,1.0101,1.0105,1.0101,1.0105,1.0099,1.01,1.0094,1.0094,1.0072,1.007,1.0094,1.0094,1.0094,0,1.0031,1.003,1.004,1.0041,1.0045,1.0047,1.0049,1.0059,1.0061,1.0068,1.0066,1.0069,1.0072,1.0075,1.0082,1.0085,1.0088,1.008,1.0088,1.0085,1.0087,1.0087,1.0086,1.0078,1.0078,1.0078,1.0078,0,1.0013,1.0017,1.002,1.0025,1.0027,1.0031,1.0035,1.0035,1.0046,1.0048,1.005,1.0052,1.0056,1.0058,1.0062,1.0066,1.0073,1.0075,1.0074,1.007,1.0067,1.0068,1.0094,1.0075,1.0075,1.0076,1.0076,1.0076,0.9999,0.9998,1.0005,1.0007,1.0011,1.0015,1.0015,1.0021,1.0023,1.0028,1.0033,1.0034,1.004,1.0046,1.0049,1.005,1.0054,1.0053,1.0052,1.0051,1.0049,1.0067,1.0051,1.0051,1.0051,1.0051,1.0051,0,0.9981,0.9985,0.9988,0.9993,0.9995,1.0002,1.0007,1.0008,1.0009,1.0013,1.0016,1.0018,1.002,1.0027,1.003,1.0029,1.0032,1.0029,1.0029,1.003,1.0046,1.0047,1.0026,1.0026,1.0026,1.0026,1.0026,1.0026,0.9972,0.9971,0.9976,0.9977,0.9981,0.9983,0.9985,0.9988,0.9991,0.9993,0.9995,1.0,1.0005,1.0008,1.001,1.0012,1.0012,1.0008,1.0011,1.0026,1.0029,1.0031,1.0031,1.0008,1.0008,0.9995,0.9995,0.9994]}]]